Regional Weather Roundup
Issued by NWS

Home | Current Version | Previous Version | Text Only | Print | Product List | Glossary On
Versions: 1 2 3 4 5 6 7 8 9 10 11 12 13 14 15 16 17 18 19 20 21 22 23 24 25 26 27 28 29 30 31 32 33 34 35 36 37 38 39 40 41 42 43 44 45 46 47 48 49 50
431
ASUS44 KJAN 291203
RWRMS

MISSISSIPPI HOURLY WEATHER ROUNDUP
NATIONAL WEATHER SERVICE JACKSON MS
700 AM CDT TUE JUL 29 2014

NOTE: "FAIR: INDICATES FEW OR NO CLOUDS BELOW 12,000 FEET WITH NO
SIGNIFICANT WEATHER AND/OR OBSTRUCTIONS TO VISIBILITY.

MSZ001>002-007>008-010>013-018>021-025>028-034>036-291300-
NORTHWEST MISSISSIPPI

CITY           SKY/WX    TMP DP  RH WIND       PRES   REMARKS
CLARKSDALE     FAIR      68  66  94 NE5       30.10R
CLEVELAND      FAIR      68  67  99 CALM      30.07R
GREENWOOD      CLOUDY    68  66  93 CALM      30.08R
6HR MIN TEMP:  64; 6HR MAX TEMP:  68;

GREENVILLE     CLEAR     68  65  90 CALM      30.07R
6HR MIN TEMP:  65; 6HR MAX TEMP:  68;

GRENADA        FAIR      68  63  83 CALM      30.08R
OLIVE BRANCH   PTCLDY    64  63  94 N7        30.11R
OXFORD         FAIR      66  61  82 CALM      30.10R
TUNICA         PTSUNNY   68  63  83 N6        30.11R
$$

MSZ003>006-009-014>017-022>024-029>033-037>039-291300-
NORTHEAST MISSISSIPPI

CITY           SKY/WX    TMP DP  RH WIND       PRES   REMARKS
BELMONT        CLOUDY    65  61  87 N5        30.07R
COLUMBUS AFB   SUNNY     67  64  92 NW3       30.06R
6HR MIN TEMP:  64; 6HR MAX TEMP:  69;

CORINTH        FAIR      64  59  82 N5        30.09R
GOLDN TRIANGLE MOSUNNY   66  63  88 N6        30.06R
STARKVILLE     PTSUNNY   64  63  94 CALM      30.07R
TUPELO         MOSUNNY   67  62  84 N3        30.07R
6HR MIN TEMP:  65; 6HR MAX TEMP:  70;

$$

MSZ040-058-291300-
CENTRAL MISSISSIPPI

CITY           SKY/WX    TMP DP  RH WIND       PRES   REMARKS
JACKSON INTL   CLEAR     66  65  96 CALM      30.08R
6HR MIN TEMP:  64; 6HR MAX TEMP:  73;

JACKSON HAWKNS CLEAR     69  63  81 CALM      30.08R
6HR MIN TEMP:  67; 6HR MAX TEMP:  74;

MERIDIAN KEY   CLEAR     67  63  87 CALM      30.06R
6HR MIN TEMP:  64; 6HR MAX TEMP:  70; 6HR PCP:  0.02;

MERIDIAN NAS   PTCLDY    67  63  87 NW3       30.05R
6HR MIN TEMP:  64; 6HR MAX TEMP:  71;

RAYMOND        HAZE      64  59  82 CALM      30.08R VSB 1/2
VICKSBURG      CLEAR     64  62  93 CALM      30.08R
6HR MIN TEMP:  61; 6HR MAX TEMP:  73;

$$

MSZ059>079-291300-
SOUTH MISSISSIPPI

CITY           SKY/WX    TMP DP  RH WIND       PRES   REMARKS
BROOKHAVEN     FAIR      66  66 100 N3        30.09S
COLUMBIA       FAIR      66  64  94 CALM      30.05S FOG
HATTIESBURG    CLEAR     70  67  90 VRB3      30.07R
6HR MIN TEMP:  68; 6HR MAX TEMP:  77;

MCCOMB         MOCLDY    70  66  87 N5        30.06S
6HR MIN TEMP:  67; 6HR MAX TEMP:  76;

NATCHEZ        PTCLDY    68  64  88 CALM      30.09R
6HR MIN TEMP:  66; 6HR MAX TEMP:  73;

PINE BELT      CLEAR     68  63  83 CALM      30.08R
6HR MIN TEMP:  66; 6HR MAX TEMP:  73;

$$

MSZ080>082-291300-
COASTAL MISSISSIPPI

CITY           SKY/WX    TMP DP  RH WIND       PRES   REMARKS
BILOXI         PTCLDY    74  67  78 VRB3      30.03R
6HR MIN TEMP:  74; 6HR MAX TEMP:  82;

PASCAGOULA     PTCLDY    72  68  87 N6        30.03R
6HR MIN TEMP:  71; 6HR MAX TEMP:  81;

GULFPORT       PTCLDY    76  66  71 N8        30.03R
6HR MIN TEMP:  76; 6HR MAX TEMP:  84;

$$



USA.gov is the U.S. government's official web portal to all federal, state and local government web resources and services.